Date String (YYYY-MM-DD hh:mm:ss) UTC,Instrument flags,absolute air pressure of the measurement (hPa),sample flow rate (lpm),inlet stack bypass flow (lpm),air temperature of the measurement (°C),ambient temperature measured by the external sensor (°C),aerosol sample conditioner tube jacket temperature (°C),OPC LED temperature (°C),internal box temperature (°C),relative humidity of the measurement (%),span deviation,mass concentration of particles derived from Lorenz-Mie calculation of OPC scattering (μg/m³),mass concentration of particles derived from Lorenz-Mie calculation of OPC scattering (μg/m³),mass concentration of particles derived from Lorenz-Mie calculation of OPC scattering (μg/m³)
DateTimeUTC,F1_M11,P_M11,Q1_M11,Q2_M11,T1_M11,T2_M11,T3_M11,T4_M11,T5_M11,U1_M11,ZSPAN_M11,X2_M11,X0_M11,X1_M11
2024-01-12 18:00:00,SystemResetWarning,0816.5,5.00,000.00,018.7,017.3,000.0,027.3,020.0,6.9,0000.0,0000.56,0001.13,0000.33
2024-01-12 18:01:00,SystemResetWarning,0816.5,5.01,000.00,018.7,017.2,000.0,027.3,020.0,6.9,0000.0,0000.52,0001.04,0000.32
2024-01-12 18:02:00,SystemResetWarning,0816.5,5.00,000.00,018.7,017.2,000.0,027.3,020.0,6.8,0000.0,0000.50,0001.01,0000.31
2024-01-12 18:03:00,SystemResetWarning,0816.5,4.99,000.00,018.7,017.2,000.0,027.3,020.0,6.7,0000.0,0000.49,0000.99,0000.32
2024-01-12 18:04:00,SystemResetWarning,0816.4,4.99,000.00,018.7,017.2,000.0,027.3,020.0,6.8,0000.0,0000.47,0000.93,0000.33
2024-01-12 18:05:00,SystemResetWarning,0816.4,5.00,000.00,018.6,017.2,000.0,027.3,020.0,6.9,0000.0,0000.44,0000.84,0000.34
2024-01-12 18:06:00,SystemResetWarning,0816.4,5.00,000.00,018.6,017.2,000.0,027.3,020.0,6.9,0000.0,0000.45,0000.93,0000.34
2024-01-12 18:07:00,SystemResetWarning,0816.4,5.00,000.00,018.7,017.4,000.0,027.3,020.2,6.9,0000.0,0000.46,0000.93,0000.35
2024-01-12 18:08:00,SystemResetWarning,0816.4,5.02,000.00,018.8,018.5,000.0,027.3,020.7,6.9,0000.0,0000.49,0000.97,0000.35
2024-01-12 18:09:00,SystemResetWarning,0816.3,4.98,000.00,018.9,018.9,000.0,027.3,020.7,6.7,0000.0,0000.53,0001.50,0000.35
2024-01-12 18:10:00,SystemResetWarning,0816.3,4.99,000.00,019.0,018.8,000.0,027.3,020.4,6.6,0000.0,0000.56,0001.62,0000.36
2024-01-12 18:11:00,SystemResetWarning,0816.2,5.01,000.00,018.9,018.6,000.0,027.2,020.2,6.6,0000.0,0000.57,0001.64,0000.36
2024-01-12 18:12:00,SystemResetWarning,0816.2,5.00,000.00,018.9,018.4,000.0,027.2,020.0,6.7,0000.0,0000.61,0001.80,0000.37
2024-01-12 18:13:00,SystemResetWarning,0816.1,4.99,000.00,018.9,018.1,000.0,027.2,020.0,6.6,0000.0,0000.64,0001.90,0000.37
2024-01-12 18:14:00,SystemResetWarning,0816.1,4.99,000.00,018.8,017.9,000.0,027.2,020.0,6.6,0000.0,0000.65,0001.93,0000.37
2024-01-12 18:15:00,SystemResetWarning,0816.2,5.00,000.00,018.8,017.8,000.0,027.3,020.0,6.6,0000.0,0000.65,0001.93,0000.36
2024-01-12 18:16:00,SystemResetWarning,0816.1,5.01,000.00,018.8,017.7,000.0,027.3,020.0,6.7,0000.0,0000.66,0001.97,0000.37
2024-01-12 18:17:00,SystemResetWarning,0816.0,5.01,000.00,018.8,017.6,000.0,027.3,020.0,6.8,0000.0,0000.67,0001.99,0000.36
2024-01-12 18:18:00,SystemResetWarning,0816.0,5.00,000.00,018.8,017.5,000.0,027.3,020.0,6.8,0000.0,0000.68,0002.03,0000.36
2024-01-12 18:19:00,SystemResetWarning,0816.0,5.00,000.00,018.8,017.4,000.0,027.3,020.0,6.8,0000.0,0000.67,0001.89,0000.35
2024-01-12 18:20:00,SystemResetWarning,0815.9,5.00,000.00,018.7,017.3,000.0,027.3,020.0,6.8,0000.0,0000.65,0001.40,0000.35
2024-01-12 18:21:00,SystemResetWarning,0815.9,5.00,000.00,018.7,017.3,000.0,027.3,020.0,6.9,0000.0,0000.64,0001.36,0000.35
2024-01-12 18:22:00,SystemResetWarning,0815.9,4.99,000.00,018.7,017.2,000.0,027.3,020.0,6.9,0000.0,0000.64,0001.45,0000.34
2024-01-12 18:23:00,SystemResetWarning,0815.9,5.00,000.00,018.7,017.2,000.0,027.3,020.0,6.8,0000.0,0000.61,0001.32,0000.34
2024-01-12 18:24:00,SystemResetWarning,0815.9,5.00,000.00,018.7,017.2,000.0,027.3,020.0,6.8,0000.0,0000.61,0001.27,0000.34
2024-01-12 18:25:00,SystemResetWarning,0815.9,5.00,000.00,018.7,017.1,000.0,027.3,020.0,6.7,0000.0,0000.62,0001.29,0000.34
2024-01-12 18:26:00,SystemResetWarning,0815.9,5.01,000.00,018.7,017.2,000.0,027.3,020.1,6.6,0000.0,0000.65,0001.34,0000.35
2024-01-12 18:27:00,SystemResetWarning,0816.0,5.01,000.00,018.8,018.2,000.0,027.3,020.6,6.7,0000.0,0000.64,0001.32,0000.34
2024-01-12 18:28:00,SystemResetWarning,0816.0,5.00,000.00,019.0,019.2,000.0,027.3,021.0,6.7,0000.0,0000.61,0001.17,0000.34
2024-01-12 18:29:00,SystemResetWarning,0815.9,5.00,000.00,019.1,019.3,000.0,027.3,020.9,6.6,0000.0,0000.60,0001.15,0000.33
2024-01-12 18:30:00,SystemResetWarning,0815.9,4.99,000.00,019.1,019.2,000.0,027.3,020.6,6.5,0000.0,0000.61,0001.16,0000.34
2024-01-12 18:31:00,SystemResetWarning,0815.8,5.00,000.00,019.1,018.9,000.0,027.3,020.4,6.5,0000.0,0000.60,0001.41,0000.34
2024-01-12 18:32:00,SystemResetWarning,0815.9,5.00,000.00,019.0,018.6,000.0,027.3,020.2,6.7,0000.0,0000.57,0002.03,0000.33
2024-01-12 18:33:00,SystemResetWarning,0815.8,5.00,000.00,019.0,018.4,000.0,027.3,020.1,6.7,0000.0,0000.55,0001.89,0000.33
2024-01-12 18:34:00,SystemResetWarning,0815.8,5.00,000.00,018.9,018.1,000.0,027.3,020.0,6.8,0000.0,0000.54,0001.88,0000.33
2024-01-12 18:35:00,SystemResetWarning,0815.7,5.00,000.00,018.9,017.9,000.0,027.3,020.0,6.8,0000.0,0000.53,0002.10,0000.32
2024-01-12 18:36:00,SystemResetWarning,0815.7,5.00,000.00,018.9,017.7,000.0,027.3,020.0,6.9,0000.0,0000.53,0002.43,0000.32
2024-01-12 18:37:00,SystemResetWarning,0815.8,5.00,000.00,018.8,017.6,000.0,027.3,020.0,6.7,0000.0,0000.51,0002.39,0000.32
2024-01-12 18:38:00,SystemResetWarning,0815.8,5.00,000.00,018.8,017.5,000.0,027.3,020.0,6.7,0000.0,0000.52,0002.39,0000.33
2024-01-12 18:39:00,SystemResetWarning,0815.7,5.00,000.00,018.8,017.5,000.0,027.3,020.0,6.8,0000.0,0000.52,0002.40,0000.33
2024-01-12 18:40:00,SystemResetWarning,0815.7,5.00,000.00,018.8,017.4,000.0,027.3,020.0,6.8,0000.0,0000.52,0002.38,0000.34
2024-01-12 18:41:00,SystemResetWarning,0815.7,5.00,000.00,018.8,017.3,000.0,027.3,020.0,6.8,0000.0,0000.51,0002.39,0000.33
2024-01-12 18:42:00,SystemResetWarning,0815.6,5.00,000.00,018.7,017.3,000.0,027.3,020.0,6.8,0000.0,0000.52,0002.31,0000.34
2024-01-12 18:43:00,SystemResetWarning,0815.6,5.00,000.00,018.7,017.2,000.0,027.3,020.0,6.8,0000.0,0000.53,0001.56,0000.34
2024-01-12 18:44:00,SystemResetWarning,0815.6,5.00,000.00,018.7,017.2,000.0,027.3,020.0,6.9,0000.0,0000.54,0001.66,0000.35
2024-01-12 18:45:00,SystemResetWarning,0815.6,5.00,000.00,018.7,017.2,000.0,027.3,020.0,7.0,0000.0,0000.53,0001.67,0000.34
2024-01-12 18:46:00,SystemResetWarning,0815.6,5.00,000.00,018.7,017.2,000.0,027.3,020.0,7.0,0000.0,0000.53,0001.56,0000.34
2024-01-12 18:47:00,SystemResetWarning,0815.6,5.00,000.00,018.7,017.1,000.0,027.3,020.0,6.9,0000.0,0000.53,0001.84,0000.35
2024-01-12 18:48:00,SystemResetWarning,0815.6,5.00,000.00,018.7,017.1,000.0,027.3,020.0,6.8,0000.0,0000.60,0002.92,0000.35
2024-01-12 18:49:00,SystemResetWarning,0815.6,5.00,000.00,018.7,017.1,000.0,027.3,020.0,6.8,0000.0,0000.63,0003.04,0000.35
2024-01-12 18:50:00,SystemResetWarning,0815.6,5.01,000.00,018.6,017.0,000.0,027.3,020.0,6.9,0000.0,0000.64,0003.04,0000.35
2024-01-12 18:51:00,SystemResetWarning,0815.6,5.01,000.00,018.7,017.5,000.0,027.3,020.3,7.0,0000.0,0000.65,0003.05,0000.35
2024-01-12 18:52:00,SystemResetWarning,0815.6,5.00,000.00,018.8,018.6,000.0,027.2,020.8,7.0,0000.0,0000.65,0003.18,0000.36
2024-01-12 18:53:00,SystemResetWarning,0815.7,5.00,000.00,019.0,019.2,000.0,027.2,020.9,7.0,0000.0,0000.64,0003.47,0000.36
2024-01-12 18:54:00,SystemResetWarning,0815.6,4.99,000.00,019.1,019.1,000.0,027.2,020.6,7.0,0000.0,0000.66,0003.52,0000.36
2024-01-12 18:55:00,SystemResetWarning,0815.6,4.99,000.00,019.0,018.9,000.0,027.2,020.4,7.0,0000.0,0000.66,0003.45,0000.36
2024-01-12 18:56:00,SystemResetWarning,0815.6,5.01,000.00,019.0,018.6,000.0,027.2,020.2,7.0,0000.0,0000.68,0003.43,0000.36
2024-01-12 18:57:00,SystemResetWarning,0815.6,5.00,000.00,018.9,018.4,000.0,027.2,020.1,6.9,0000.0,0000.72,0003.47,0000.37
2024-01-12 18:58:00,SystemResetWarning,0815.6,4.99,000.00,018.9,018.1,000.0,027.2,020.0,6.9,0000.0,0000.77,0003.43,0000.37
2024-01-12 18:59:00,SystemResetWarning,0815.6,5.02,000.00,018.9,017.9,000.0,027.3,020.0,6.8,0000.0,0000.70,0001.81,0000.37
